LARES

Last updated on Wed Aug 26 2026 00:04:27 GMT+0000 (Coordinated Universal Time)

1 38077U 12006A 26237.55273460 -.00000044 00000+0 -31923-4 0 9997 2 38077 69.4904 173.7647 0010190 323.2800 36.7527 12.54932210665773
UTC large
Height (km)
Speed (km/s)
/
Latitude / Longitude
Inclination (degrees)
Orbital Period (minutes)
Azimuth
Elevation
Range (km)
Doppler Factor

Next 0 passes for location: London (51.5072 / 0.1276)

No passes found over London.
LARES